Preview of NWS' New Version of Forecast
This preview is not operational and should not be used for support decisions.

Regional Weather Roundup (RWR)

Issued by National Weather Service (NWS)

                            
000
ASPQ40 PGUM 200810
RWRPQ 
WEATHER ROUNDUP FOR THE MARIANAS AND MICRONESIA
NATIONAL WEATHER SERVICE TIYAN GU
600 PM CHST WED FEB 20 2019

GUZ001>004-200900-
MARIANA ISLANDS-
  
CITY           SKY/WX    TMP DP  RH WIND       PRES   REMARKS
GUAM AIRPORT   MOCLDY    81  75  83 NE16G24   29.93R                  
ANDERSEN AFB   PTCLDY    79  72  78 NE22G29   29.93S                  
ROTA AIRPORT   MOCLDY    77  70  78 NE14      29.93R                  
TINIAN AP      MOCLDY   N/A N/A N/A E17       29.93R                  
SAIPAN AP      LGT RAIN  79  72  78 NE21G26   29.94S                  

$$

PMZ161-200900-
REPUBLIC OF PALAU-
  
CITY           SKY/WX    TMP DP  RH WIND       PRES   REMARKS
KOROR AP       CLOUDY    81  75  83 NE14G21   29.89S                  
KOROR WSO      NOT AVBL                                               

$$

PMZ171>174-200900-
FEDERATED STATES OF MICRONESIA-
  
CITY           SKY/WX    TMP DP  RH WIND       PRES   REMARKS
YAP AIRPORT    PTSUNNY   82  73  74 NE10      29.89R                  
CHUUK AP       LGT RAIN  81  77  89 NE17G32   29.65S                  
POHNPEI AP     NOT AVBL                                               
POHNPEI WSO    CLOUDY    82  75  78 SE12      29.81R                  
KOSRAE AP      NOT AVBL                                               

$$

PMZ181-200900-
REPUBLIC OF THE MARSHALL ISLANDS-
  
CITY           SKY/WX    TMP DP  RH WIND       PRES   REMARKS
KWAJALEIN AP   NOT AVBL                                               
MAJURO AP      PTCLDY    84  77  79 NE23      29.83R HX  94           
MAJURO WSO     NOT AVBL                                               

$$